Location: Bidart
(43.4376°N, 1.5913°W)
Time: 04:46:47
(UTC+00:00)

USA 229 DEB - Pass Details

Date: 21 April 2026
Orbit: 844 x 1364 km, 63.4° (Epoch: 10 January)

Event Time Altitude Azimuth Distance (km) Brightness Sun altitude
Rises 22:03:01 0° 322° (NW) 3,874 7.9 -27.9°
Reaches altitude 10° 22:06:15 10° 337° (NNW) 3,007 7.0 -28.2°
Maximum altitude 22:11:54 24° 28° (NNE) 2,296 5.7 -28.8°
Enters shadow 22:17:33 11° 76° (ENE) 3,170 6.0 -29.3°
